[[{"header":{"parameterUnit":"m.s-1","parameterCategory":2,"la1":30.2991,"la2":30.254,"lo1":-89.0895,"lo2":-89.0444,"dy":0.0017,"dx":0.0017,"nx":28,"ny":28,"refTime":"2023-11-05T09:00:00:Z","depth":"0","parameterNumber":2,"parameterNumberName":"U-component_of_CURRENTS"},"data":[0,0,0,0,0,0,0,0,0,0,0,0,0,0,0,0,0,0,0,0,0,0,0,0,0,0,0,0,0,0,0,0,0,0,0,0,0,0,0,0,0,0,0,0,0,0,0,0,0,0,0,0,0,0,0,0,0,0,-0.134,-0.1341,0,-0.1472,-0.1473,-0.1474,-0.1483,-0.1482,-0.1481,-0.148,-0.1458,-0.1459,-0.1459,0,0,0,0,0,0,0,0,0,0,0,0,0,-0.1128,-0.1131,-0.1339,-0.1342,-0.1344,-0.1472,-0.1473,-0.1475,-0.1484,-0.1482,-0.1481,-0.148,-0.1458,-0.1459,-0.1459,0,0,0,0,0,0,0,0,0,0,0,0,0,-0.1231,-0.1132,-0.1339,-0.1368,-0.1372,-0.1472,-0.1474,-0.1475,-0.1484,-0.1482,-0.1481,-0.1479,-0.1458,-0.1459,-0.1459,-0.1492,0,0,-0.1461,-0.1461,0,0,0,0,0,0,0,0,-0.1225,-0.1238,-0.1361,-0.1366,-0.1371,-0.1464,-0.1391,-0.1475,-0.1484,-0.1436,-0.148,-0.1479,-0.1451,-0.1452,-0.1475,-0.1491,-0.149,-0.1461,-0.1461,-0.1461,-0.1461,0,0,0,0,0,0,0,-0.1218,-0.1233,-0.1387,-0.1364,-0.137,-0.1386,-0.1398,-0.1408,-0.1443,-0.144,-0.1442,-0.1466,-0.1451,-0.1474,-0.1474,-0.149,-0.1461,-0.1461,-0.1462,-0.1462,-0.1553,-0.1555,0,0,0,0,0,0,-0.1213,-0.1226,-0.1383,-0.1391,-0.1299,-0.1391,-0.1404,-0.1432,-0.1446,-0.145,-0.1467,-0.1466,-0.1474,-0.1473,-0.1473,-0.1532,-0.1461,-0.1462,-0.1462,-0.1551,-0.1554,-0.1556,0,0,0,0,0,0,-0.1208,-0.1226,-0.1377,-0.1315,-0.1336,-0.1397,-0.1427,-0.1435,-0.1456,-0.147,-0.1469,-0.148,-0.1473,-0.1472,-0.1502,-0.153,-0.1462,-0.1462,-0.1549,-0.1552,-0.1555,-0.1638,0,0,0,0,0,0,-0.1201,-0.1223,-0.1234,-0.1315,-0.134,-0.1444,-0.1429,-0.1439,-0.1476,-0.1475,-0.148,-0.1477,-0.1472,-0.1502,-0.1503,-0.153,-0.1463,-0.1546,-0.155,-0.1554,-0.1632,-0.1643,-0.1653,0,0,0,0,0,-0.1193,-0.1221,-0.1234,-0.1253,-0.1356,-0.1446,-0.146,-0.1493,-0.1478,-0.1502,-0.1511,-0.1477,-0.1527,-0.1505,-0.1505,-0.1532,-0.1544,-0.1549,-0.1554,-0.1628,-0.1641,-0.1653,0,0,0,0,0,0,-0.114,-0.1228,-0.1243,-0.1296,-0.1368,-0.1449,-0.1475,-0.1497,-0.1526,-0.1516,-0.1509,-0.151,-0.1548,-0.1533,-0.1508,-0.1572,-0.1528,-0.1533,-0.1584,-0.1597,-0.1607,-0.1627,-0.1463,0,0,0,0,0,-0.1135,-0.1171,-0.1264,-0.1305,-0.1341,-0.1405,-0.1441,-0.1472,-0.1516,-0.1527,-0.1537,-0.1545,-0.1572,-0.1576,-0.1595,-0.1628,-0.1634,-0.1645,-0.1656,-0.1664,-0.1683,-0.1717,-0.1732,-0.1572,-0.1572,-0.1572,0,0,-0.1127,-0.1179,-0.12,-0.1295,-0.1346,-0.142,-0.1421,-0.1487,-0.1544,-0.1519,-0.1576,-0.1583,-0.1591,-0.164,-0.1653,-0.1626,-0.1718,-0.167,-0.1678,-0.1692,-0.1723,-0.1739,-0.1752,-0.1575,-0.1574,-0.1574,0,0,-0.1137,-0.1176,-0.1213,-0.1279,-0.1369,-0.1423,-0.1442,-0.153,-0.1559,-0.1625,-0.1625,-0.167,-0.1684,-0.1727,-0.174,-0.182,-0.1775,-0.1795,-0.1858,-0.189,-0.1904,-0.1915,-0.1962,-0.1977,-0.1794,-0.1794,-0.1794,0,-0.1122,-0.1188,-0.124,-0.1305,-0.1367,-0.1425,-0.1498,-0.1551,-0.1636,-0.1676,-0.1646,-0.1737,-0.1743,-0.1831,-0.1855,-0.1848,-0.1842,-0.1808,-0.1903,-0.1915,-0.1925,-0.197,-0.1986,-0.1799,-0.1798,-0.1798,-0.1797,0,-0.1174,-0.1229,-0.1262,-0.1362,-0.1435,-0.1506,-0.1602,-0.1663,-0.1695,-0.1749,-0.1834,-0.1863,-0.1916,-0.1923,-0.1909,-0.1992,-0.1958,-0.1915,-0.187,-0.1947,-0.1989,-0.2004,-0.1805,-0.1804,-0.1802,-0.1801,0,0,-0.1149,-0.127,-0.1284,-0.1341,-0.1473,-0.1544,-0.1648,-0.177,-0.184,-0.1898,-0.1983,-0.2051,-0.2055,-0.2074,-0.207,-0.2098,-0.2178,-0.2026,-0.2025,-0.207,-0.2243,-0.2223,-0.2237,-0.2121,-0.2124,-0.2126,-0.2248,0,-0.1178,-0.1279,-0.1352,-0.1472,-0.1541,-0.1644,-0.1744,-0.1857,-0.1929,-0.202,-0.2073,-0.2137,-0.2114,-0.2129,-0.2165,-0.2164,-0.2216,-0.2149,-0.2164,-0.2167,-0.2137,-0.2253,-0.2035,-0.2125,-0.2263,-0.2265,-0.2267,0,-0.122,-0.1281,-0.1378,-0.1535,-0.1578,-0.1658,-0.1832,-0.1929,-0.2071,-0.212,-0.2202,-0.2228,-0.2314,-0.2254,-0.2339,-0.2277,-0.2281,-0.2279,-0.2282,-0.2246,-0.2174,-0.2067,-0.2146,-0.2038,-0.2289,-0.2287,-0.2286,0,-0.1175,-0.132,-0.1386,-0.1439,-0.161,-0.168,-0.1784,-0.1947,-0.2037,-0.2169,-0.2221,-0.2328,-0.2358,-0.2391,-0.2418,-0.2358,-0.2491,-0.241,-0.2422,-0.242,-0.2235,-0.2213,-0.2208,-0.2493,-0.2492,-0.2492,-0.2492,0,-0.119,-0.1258,-0.136,-0.1399,-0.1513,-0.1647,-0.1782,-0.1899,-0.205,-0.2147,-0.2245,-0.2327,-0.2377,-0.2458,-0.2468,-0.2516,-0.2547,-0.2476,-0.2463,-0.2261,-0.2241,-0.2137,-0.2156,-0.2497,-0.2496,-0.2495,-0.2494,0,-0.1149,-0.1211,-0.1296,-0.1436,-0.1486,-0.1565,-0.1764,-0.186,-0.1999,-0.2121,-0.2155,-0.2322,-0.2424,-0.2513,-0.2586,-0.2573,-0.2568,-0.2639,-0.2418,-0.2377,-0.2242,-0.2275,-0.2391,-0.2334,-0.2651,-0.2652,-0.2652,0,-0.1145,-0.1166,-0.1279,-0.1323,-0.1383,-0.1513,-0.1611,-0.1801,-0.1897,-0.2117,-0.2161,-0.2318,-0.243,-0.2586,-0.2575,-0.2641,-0.2612,-0.2496,-0.236,-0.2252,-0.2279,-0.2317,-0.2261,-0.2153,-0.2149,-0.2146,-0.2143,0,-0.1126,-0.1138,-0.1187,-0.1254,-0.1338,-0.1463,-0.1603,-0.1669,-0.1878,-0.1988,-0.2151,-0.2263,-0.2403,-0.2387,-0.2486,-0.2484,-0.2376,-0.2436,-0.2355,-0.1949,-0.1957,-0.1884,-0.208,-0.2116,-0.2119,-0.2121,-0.2122,-0.2123,-0.1093,-0.11,-0.1128,-0.1199,-0.1293,-0.139,-0.1445,-0.1601,-0.1737,-0.1895,-0.2065,-0.218,-0.2185,-0.2273,-0.2269,-0.2052,-0.2227,-0.1944,-0.2017,-0.2084,-0.1964,-0.2139,-0.2138,-0.2141,-0.2144,-0.2146,-0.2147,0,-0.1064,-0.1059,-0.1092,-0.116,-0.1219,-0.13,-0.1426,-0.1464,-0.1571,-0.1757,-0.1911,-0.1925,-0.1884,-0.1841,-0.1647,-0.1594,-0.1542,-0.16,-0.1525,-0.1505,-0.1635,-0.1535,-0.1362,-0.1362,-0.1362,-0.1362,-0.1362,-0.1362,-0.1042,-0.1031,-0.1026,-0.1064,-0.1113,-0.1148,-0.1186,-0.1259,-0.1365,-0.1465,-0.1511,-0.1622,-0.1494,-0.1537,-0.133,-0.1276,-0.1246,-0.1281,-0.1401,-0.1367,-0.14,-0.1432,-0.1334,-0.1122,-0.1122,-0.1088,-0.1088,-0.1088]},{"header":{"parameterUnit":"m.s-1","parameterCategory":2,"la1":30.2991,"la2":30.254,"lo1":-89.0895,"lo2":-89.0444,"dy":0.0017,"dx":0.0017,"nx":28,"ny":28,"refTime":"2023-11-05T09:00:00:Z","depth":"0","parameterNumber":3,"parameterNumberName":"V-component_of_CURRENTS"},"data":[0,0,0,0,0,0,0,0,0,0,0,0,0,0,0,0,0,0,0,0,0,0,0,0,0,0,0,0,0,0,0,0,0,0,0,0,0,0,0,0,0,0,0,0,0,0,0,0,0,0,0,0,0,0,0,0,0,0,-0.1159,-0.1158,0,-0.1058,-0.1057,-0.1056,-0.1003,-0.1003,-0.1003,-0.1003,-0.0899,-0.0896,-0.0894,0,0,0,0,0,0,0,0,0,0,0,0,0,-0.1312,-0.131,-0.1159,-0.1158,-0.1156,-0.1058,-0.1057,-0.1056,-0.1003,-0.1003,-0.1003,-0.1003,-0.09,-0.0897,-0.0893,0,0,0,0,0,0,0,0,0,0,0,0,0,-0.1234,-0.1309,-0.116,-0.1117,-0.1112,-0.1058,-0.1057,-0.1055,-0.1004,-0.1003,-0.1003,-0.1003,-0.0901,-0.0897,-0.0893,-0.0876,0,0,-0.0881,-0.088,0,0,0,0,0,0,0,0,-0.1238,-0.1228,-0.1125,-0.112,-0.1115,-0.1041,-0.1072,-0.0994,-0.1004,-0.1047,-0.1003,-0.1002,-0.0945,-0.0938,-0.0922,-0.0871,-0.0866,-0.0881,-0.0879,-0.0877,-0.0876,0,0,0,0,0,0,0,-0.1244,-0.1232,-0.1121,-0.1123,-0.1117,-0.1105,-0.1093,-0.1058,-0.1,-0.1043,-0.1038,-0.1024,-0.0943,-0.0926,-0.0919,-0.0865,-0.0881,-0.0878,-0.0875,-0.0874,-0.0773,-0.0772,0,0,0,0,0,0,-0.1252,-0.1237,-0.1124,-0.1118,-0.1175,-0.1102,-0.109,-0.1067,-0.1001,-0.099,-0.1025,-0.1022,-0.0932,-0.0924,-0.0915,-0.0896,-0.0877,-0.0873,-0.0871,-0.0773,-0.0773,-0.0772,0,0,0,0,0,0,-0.1256,-0.1243,-0.1128,-0.1175,-0.1159,-0.11,-0.1075,-0.1065,-0.1046,-0.0987,-0.0976,-0.1016,-0.0932,-0.0921,-0.0882,-0.0892,-0.0872,-0.0868,-0.0774,-0.0773,-0.0773,-0.0855,0,0,0,0,0,0,-0.1261,-0.1245,-0.124,-0.1175,-0.1156,-0.1101,-0.1074,-0.1063,-0.1037,-0.1033,-0.0976,-0.0966,-0.0931,-0.0888,-0.0878,-0.0886,-0.0865,-0.0774,-0.0773,-0.0773,-0.0853,-0.0858,-0.0862,0,0,0,0,0,-0.1266,-0.1265,-0.124,-0.1227,-0.1148,-0.1101,-0.1091,-0.1049,-0.1037,-0.1032,-0.0991,-0.0967,-0.0876,-0.0885,-0.0873,-0.088,-0.0774,-0.0774,-0.0773,-0.0851,-0.0857,-0.0861,0,0,0,0,0,0,-0.1344,-0.1257,-0.1229,-0.1205,-0.1157,-0.1092,-0.1087,-0.1054,-0.1017,-0.1015,-0.0963,-0.095,-0.092,-0.0883,-0.0894,-0.0846,-0.0821,-0.0818,-0.0885,-0.0889,-0.0894,-0.0902,-0.0862,0,0,0,0,0,-0.1354,-0.1322,-0.1246,-0.1231,-0.1208,-0.1148,-0.1127,-0.1092,-0.1047,-0.103,-0.0987,-0.0942,-0.0907,-0.0886,-0.0847,-0.0822,-0.0803,-0.0816,-0.082,-0.0824,-0.0821,-0.0792,-0.0794,-0.077,-0.077,-0.077,0,0,-0.1383,-0.133,-0.1315,-0.1244,-0.1207,-0.118,-0.1136,-0.1104,-0.1087,-0.1025,-0.0999,-0.0956,-0.0903,-0.0876,-0.0859,-0.0847,-0.0829,-0.0823,-0.0828,-0.0822,-0.0791,-0.0794,-0.0796,-0.0769,-0.0769,-0.0769,0,0,-0.1421,-0.1375,-0.1358,-0.1315,-0.125,-0.1213,-0.1205,-0.1136,-0.1113,-0.1074,-0.1031,-0.0992,-0.0934,-0.0899,-0.0875,-0.0876,-0.0853,-0.0864,-0.0893,-0.0866,-0.0868,-0.0869,-0.0889,-0.0892,-0.0866,-0.0866,-0.0866,0,-0.1463,-0.1418,-0.1353,-0.1324,-0.1301,-0.1232,-0.1221,-0.1186,-0.1114,-0.1104,-0.1076,-0.0996,-0.0945,-0.0922,-0.0912,-0.0888,-0.0882,-0.0885,-0.0874,-0.0875,-0.0875,-0.0894,-0.0896,-0.087,-0.0869,-0.0869,-0.0869,0,-0.1474,-0.1442,-0.1435,-0.1371,-0.1345,-0.1322,-0.1261,-0.1239,-0.1204,-0.1166,-0.1131,-0.1058,-0.1009,-0.0989,-0.0945,-0.0924,-0.0926,-0.0888,-0.087,-0.0883,-0.0902,-0.0903,-0.0875,-0.0874,-0.0873,-0.0872,0,0,-0.156,-0.1461,-0.1458,-0.1439,-0.1365,-0.1348,-0.133,-0.1296,-0.1295,-0.1227,-0.1227,-0.1142,-0.1098,-0.1065,-0.101,-0.0974,-0.0972,-0.093,-0.0927,-0.0967,-0.095,-0.0803,-0.079,-0.0935,-0.0934,-0.0934,-0.0978,0,-0.1591,-0.1552,-0.1496,-0.1485,-0.1466,-0.1408,-0.1403,-0.1367,-0.1328,-0.1311,-0.1244,-0.1212,-0.1131,-0.1106,-0.1058,-0.0991,-0.097,-0.0966,-0.0914,-0.0914,-0.0794,-0.0782,-0.061,-0.0619,-0.0978,-0.0979,-0.0979,0,-0.1619,-0.1586,-0.1571,-0.1533,-0.1525,-0.1516,-0.1503,-0.1482,-0.1441,-0.1413,-0.1366,-0.1308,-0.1249,-0.1173,-0.108,-0.1083,-0.1016,-0.0966,-0.0966,-0.0793,-0.0764,-0.0652,-0.0606,-0.0339,-0.0979,-0.0979,-0.0979,0,-0.17,-0.1648,-0.1642,-0.1621,-0.1567,-0.1571,-0.1555,-0.1519,-0.1517,-0.1473,-0.1477,-0.1394,-0.1365,-0.126,-0.1133,-0.1108,-0.1046,-0.1004,-0.0827,-0.082,-0.0639,-0.0614,-0.0332,-0.094,-0.0939,-0.0939,-0.0939,0,-0.1746,-0.1744,-0.1677,-0.1668,-0.1691,-0.1635,-0.1658,-0.1628,-0.1605,-0.1625,-0.1529,-0.1544,-0.1377,-0.1316,-0.1188,-0.1008,-0.109,-0.0825,-0.08,-0.0664,-0.0642,-0.0372,-0.033,-0.0941,-0.0941,-0.094,-0.094,0,-0.182,-0.1772,-0.1765,-0.1723,-0.1718,-0.1735,-0.1723,-0.1734,-0.1705,-0.173,-0.1723,-0.1667,-0.1575,-0.1418,-0.1271,-0.1077,-0.0764,-0.0851,-0.0719,-0.0672,-0.0181,-0.0154,0.0039,0.0159,-0.0639,-0.0635,-0.0632,0,-0.1848,-0.1843,-0.1813,-0.1818,-0.1797,-0.1807,-0.1815,-0.1786,-0.1801,-0.1819,-0.1848,-0.178,-0.176,-0.1489,-0.1105,-0.0838,-0.0693,-0.049,-0.0362,-0.0105,-0.006,-0.007,0.0015,-0.0201,-0.0195,-0.019,-0.0185,0,-0.1897,-0.1881,-0.1865,-0.1881,-0.1891,-0.1911,-0.1921,-0.1961,-0.1946,-0.1987,-0.2067,-0.207,-0.1749,-0.1354,-0.0897,-0.0683,-0.0252,-0.0368,-0.0123,0.0309,0.0334,0.0445,-0.0275,-0.0139,-0.0143,-0.0147,-0.0149,-0.0151,-0.1931,-0.1929,-0.1908,-0.1933,-0.1949,-0.1997,-0.2036,-0.209,-0.2158,-0.2246,-0.225,-0.22,-0.1487,-0.0814,-0.0566,0.0266,0.0065,0.0522,0.0517,0.0473,0.0676,0.0055,0.0254,0.0251,0.0249,0.0247,0.0246,0,-0.1959,-0.1941,-0.1959,-0.1977,-0.2009,-0.2011,-0.2085,-0.2156,-0.2279,-0.2337,-0.2429,-0.1702,-0.1013,-0.0283,0.0834,0.1163,0.1198,0.1305,0.1355,0.1388,0.0859,0.098,0.1375,0.1375,0.1374,0.1374,0.1374,0.1373,-0.1962,-0.1964,-0.1964,-0.2014,-0.203,-0.2097,-0.2145,-0.2295,-0.2348,-0.2271,-0.1944,-0.1676,-0.0345,0.0956,0.1878,0.1942,0.21,0.2058,0.2072,0.1772,0.1699,0.163,0.1766,0.2319,0.2319,0.2673,0.2677,0.2679]}],[{"header":{"parameterUnit":"m.s-1","parameterCategory":2,"la1":30.2991,"la2":30.254,"lo1":-89.0895,"lo2":-89.0444,"dy":0.0017,"dx":0.0017,"nx":28,"ny":28,"refTime":"2023-11-05T09:00:00:Z","depth":"2","parameterNumber":2,"parameterNumberName":"U-component_of_CURRENTS"},"data":[0,0,0,0,0,0,0,0,0,0,0,0,0,0,0,0,0,0,0,0,0,0,0,0,0,0,0,0,0,0,0,0,0,0,0,0,0,0,0,0,0,0,0,0,0,0,0,0,0,0,0,0,0,0,0,0,0,0,-0.2475,-0.2476,0,-0.2552,-0.2552,-0.2553,-0.2538,-0.2537,-0.2536,-0.2536,-0.2471,-0.247,-0.2469,0,0,0,0,0,0,0,0,0,0,0,0,0,-0.2379,-0.2379,-0.2475,-0.2477,-0.2478,-0.2552,-0.2552,-0.2553,-0.2538,-0.2537,-0.2536,-0.2535,-0.2471,-0.247,-0.2469,0,0,0,0,0,0,0,0,0,0,0,0,0,-0.2428,-0.238,-0.2475,-0.2485,-0.2487,-0.2552,-0.2552,-0.2553,-0.2538,-0.2537,-0.2536,-0.2535,-0.2472,-0.247,-0.2469,-0.2482,0,0,-0.2464,-0.2463,0,0,0,0,0,0,0,0,-0.2425,-0.243,-0.2482,-0.2484,-0.2487,-0.254,-0.2495,-0.2524,-0.2539,-0.2511,-0.2536,-0.2534,-0.2486,-0.2484,-0.2493,-0.2479,-0.2476,-0.2464,-0.2463,-0.2462,-0.2462,0,0,0,0,0,0,0,-0.2421,-0.2427,-0.2498,-0.2484,-0.2487,-0.2508,-0.2512,-0.2501,-0.2496,-0.2514,-0.2515,-0.2535,-0.2485,-0.2494,-0.2491,-0.2475,-0.2464,-0.2462,-0.2461,-0.2461,-0.2477,-0.2478,0,0,0,0,0,0,-0.2424,-0.2424,-0.2496,-0.2501,-0.246,-0.2511,-0.2515,-0.2519,-0.2499,-0.2499,-0.2536,-0.2534,-0.2497,-0.2492,-0.2488,-0.2518,-0.2462,-0.2461,-0.246,-0.2476,-0.2477,-0.2479,0,0,0,0,0,0,-0.2421,-0.2429,-0.2493,-0.2471,-0.2481,-0.2514,-0.2518,-0.2521,-0.2539,-0.2519,-0.2513,-0.2552,-0.2496,-0.249,-0.2484,-0.2515,-0.246,-0.2459,-0.2474,-0.2476,-0.2478,-0.2568,0,0,0,0,0,0,-0.2418,-0.2427,-0.2457,-0.2471,-0.2483,-0.2544,-0.252,-0.2524,-0.2556,-0.2555,-0.2531,-0.2524,-0.2495,-0.2487,-0.2483,-0.2512,-0.2457,-0.2472,-0.2475,-0.2477,-0.2563,-0.2573,-0.2581,0,0,0,0,0,-0.2414,-0.2457,-0.2457,-0.2468,-0.2513,-0.2546,-0.2554,-0.2569,-0.2558,-0.2577,-0.2554,-0.2525,-0.25,-0.2487,-0.2482,-0.2511,-0.2471,-0.2474,-0.2477,-0.2559,-0.2571,-0.2581,0,0,0,0,0,0,-0.2432,-0.2461,-0.246,-0.251,-0.2532,-0.2546,-0.2582,-0.2582,-0.2583,-0.2576,-0.2539,-0.2531,-0.254,-0.2514,-0.25,-0.2523,-0.2483,-0.2485,-0.2547,-0.2557,-0.2566,-0.2568,-0.2456,0,0,0,0,0,-0.2451,-0.2481,-0.2505,-0.2541,-0.2557,-0.2569,-0.2594,-0.2595,-0.2594,-0.2594,-0.2577,-0.2557,-0.255,-0.2543,-0.253,-0.2542,-0.2524,-0.2558,-0.2567,-0.2575,-0.2574,-0.2566,-0.2574,-0.2489,-0.2489,-0.2489,0,0,-0.2464,-0.2488,-0.2503,-0.2548,-0.2562,-0.2599,-0.2579,-0.2613,-0.2639,-0.2585,-0.261,-0.2588,-0.256,-0.2574,-0.2575,-0.2554,-0.2598,-0.2579,-0.2586,-0.258,-0.257,-0.2578,-0.2585,-0.2491,-0.2491,-0.249,0,0,-0.2503,-0.2525,-0.2565,-0.259,-0.263,-0.2637,-0.265,-0.2668,-0.2674,-0.2696,-0.2663,-0.2654,-0.2651,-0.2632,-0.2623,-0.2672,-0.2645,-0.2679,-0.2724,-0.2717,-0.2724,-0.2729,-0.275,-0.2757,-0.2682,-0.2682,-0.2683,0,-0.2521,-0.2568,-0.2583,-0.263,-0.2653,-0.2654,-0.269,-0.2711,-0.2723,-0.2712,-0.2713,-0.27,-0.2677,-0.2682,-0.2704,-0.2692,-0.2694,-0.2687,-0.2729,-0.2733,-0.2737,-0.2757,-0.2763,-0.2687,-0.2687,-0.2686,-0.2686,0,-0.2575,-0.263,-0.2654,-0.2702,-0.2731,-0.276,-0.2782,-0.2793,-0.2795,-0.2796,-0.2804,-0.2789,-0.2761,-0.2779,-0.2759,-0.2782,-0.278,-0.2742,-0.2702,-0.2751,-0.2769,-0.2774,-0.2694,-0.2692,-0.2691,-0.269,0,0,-0.2557,-0.267,-0.2679,-0.2694,-0.2764,-0.2763,-0.2818,-0.2831,-0.28,-0.286,-0.2831,-0.2874,-0.2844,-0.2832,-0.2816,-0.2834,-0.288,-0.2813,-0.2811,-0.2835,-0.2896,-0.2666,-0.2649,-0.2855,-0.2856,-0.2856,-0.2909,0,-0.2586,-0.268,-0.2728,-0.2776,-0.2812,-0.2822,-0.2838,-0.2846,-0.2842,-0.2811,-0.2842,-0.2818,-0.2874,-0.2841,-0.288,-0.2875,-0.2892,-0.2871,-0.2842,-0.2842,-0.263,-0.2645,-0.2455,-0.2464,-0.2913,-0.2914,-0.2915,0,-0.2613,-0.267,-0.2752,-0.2767,-0.2772,-0.2803,-0.2762,-0.2777,-0.2764,-0.2752,-0.2778,-0.2766,-0.2834,-0.2829,-0.2926,-0.2917,-0.2909,-0.2921,-0.2921,-0.2669,-0.2616,-0.2479,-0.2455,-0.2922,-0.2921,-0.2921,-0.292,0,-0.2563,-0.2658,-0.2712,-0.2734,-0.2777,-0.2782,-0.2783,-0.2767,-0.2722,-0.2721,-0.269,-0.2756,-0.2787,-0.2834,-0.2908,-0.2904,-0.2983,-0.2957,-0.2753,-0.274,-0.2547,-0.2512,-0.2965,-0.2965,-0.2965,-0.2965,-0.2965,0,-0.2565,-0.2585,-0.2695,-0.2717,-0.269,-0.2742,-0.2667,-0.2677,-0.2643,-0.2603,-0.2663,-0.2646,-0.279,-0.2847,-0.2892,-0.2861,-0.2979,-0.2754,-0.272,-0.2573,-0.2541,-0.2903,-0.2895,-0.2967,-0.2966,-0.2966,-0.2966,0,-0.2501,-0.2592,-0.263,-0.2691,-0.2685,-0.267,-0.2605,-0.2527,-0.2562,-0.2523,-0.2533,-0.2596,-0.2684,-0.2796,-0.2867,-0.2814,-0.2804,-0.2742,-0.2575,-0.2514,-0.2574,-0.2571,-0.2501,-0.2493,-0.2486,-0.2481,-0.2476,0,-0.2478,-0.2512,-0.2585,-0.2589,-0.2626,-0.2585,-0.2513,-0.249,-0.2422,-0.2489,-0.2459,-0.2543,-0.2532,-0.2562,-0.2518,-0.2511,-0.2655,-0.2258,-0.2157,-0.2543,-0.2519,-0.2527,-0.2532,-0.1993,-0.1985,-0.1978,-0.1972,0,-0.24,-0.245,-0.248,-0.2506,-0.2479,-0.2373,-0.2318,-0.224,-0.2247,-0.2261,-0.2299,-0.2309,-0.2321,-0.2176,-0.2113,-0.2081,-0.224,-0.21,-0.257,-0.2088,-0.2052,-0.2032,-0.2057,-0.1911,-0.1917,-0.1922,-0.1925,-0.1928,-0.2315,-0.2319,-0.2376,-0.2364,-0.2334,-0.2203,-0.2082,-0.2034,-0.1938,-0.1931,-0.2052,-0.1995,-0.1958,-0.1684,-0.1656,-0.1636,-0.1764,-0.1677,-0.1705,-0.1739,-0.1618,-0.1565,-0.1316,-0.1319,-0.1321,-0.1323,-0.1325,0,-0.2165,-0.2192,-0.2206,-0.2176,-0.2079,-0.2114,-0.1949,-0.1791,-0.1698,-0.1681,-0.1693,-0.1427,-0.1277,-0.1313,-0.1161,-0.1086,-0.1167,-0.1054,-0.1185,-0.1241,-0.1293,-0.1158,-0.073,-0.0729,-0.0728,-0.0727,0,0,-0.2095,-0.2048,-0.2058,-0.1909,-0.1907,-0.1713,-0.1616,-0.1469,-0.1355,-0.117,-0.1098,-0.1109,-0.1144,-0.0875,-0.085,-0.0784,-0.1012,-0.0739,-0.1205,-0.1409,-0.146,-0.1623,-0.1471,0,0,0,0,0]},{"header":{"parameterUnit":"m.s-1","parameterCategory":2,"la1":30.2991,"la2":30.254,"lo1":-89.0895,"lo2":-89.0444,"dy":0.0017,"dx":0.0017,"nx":28,"ny":28,"refTime":"2023-11-05T09:00:00:Z","depth":"2","parameterNumber":3,"parameterNumberName":"V-component_of_CURRENTS"},"data":[0,0,0,0,0,0,0,0,0,0,0,0,0,0,0,0,0,0,0,0,0,0,0,0,0,0,0,0,0,0,0,0,0,0,0,0,0,0,0,0,0,0,0,0,0,0,0,0,0,0,0,0,0,0,0,0,0,0,0.0532,0.0534,0,0.0712,0.0714,0.0716,0.0789,0.0788,0.0787,0.0787,0.0841,0.0843,0.0845,0,0,0,0,0,0,0,0,0,0,0,0,0,0.0483,0.0482,0.0532,0.0534,0.0536,0.0711,0.0714,0.0717,0.0789,0.0788,0.0787,0.0787,0.084,0.0843,0.0845,0,0,0,0,0,0,0,0,0,0,0,0,0,0.0569,0.0482,0.0531,0.0592,0.0599,0.0711,0.0714,0.0717,0.0789,0.0788,0.0787,0.0786,0.084,0.0842,0.0845,0.0881,0,0,0.0854,0.0856,0,0,0,0,0,0,0,0,0.0564,0.057,0.0581,0.0588,0.0596,0.0725,0.0717,0.0765,0.0789,0.0718,0.0787,0.0786,0.079,0.0797,0.0837,0.0884,0.0886,0.0855,0.0857,0.0858,0.0859,0,0,0,0,0,0,0,0.0557,0.0565,0.0605,0.0583,0.0592,0.069,0.0699,0.0728,0.0756,0.0725,0.073,0.0747,0.0793,0.0834,0.0838,0.0887,0.0855,0.0857,0.0859,0.086,0.0922,0.0922,0,0,0,0,0,0,0.052,0.0557,0.0599,0.061,0.0576,0.069,0.0701,0.0686,0.0759,0.0769,0.0748,0.075,0.083,0.0835,0.084,0.0858,0.0858,0.0861,0.0862,0.0922,0.0922,0.0922,0,0,0,0,0,0,0.0518,0.0521,0.0592,0.0589,0.0604,0.069,0.0675,0.069,0.0724,0.0778,0.0786,0.0764,0.0829,0.0836,0.0853,0.0861,0.0862,0.0865,0.0922,0.0922,0.0922,0.0911,0,0,0,0,0,0,0.0515,0.0518,0.0522,0.0585,0.0603,0.064,0.0676,0.0694,0.0735,0.074,0.0794,0.0799,0.0829,0.0848,0.0856,0.0865,0.0867,0.0922,0.0922,0.0922,0.0912,0.091,0.0909,0,0,0,0,0,0.0512,0.0507,0.052,0.0528,0.0595,0.0639,0.0658,0.072,0.0736,0.0747,0.0781,0.0797,0.0852,0.0851,0.086,0.087,0.0922,0.0922,0.0922,0.0912,0.0911,0.091,0,0,0,0,0,0,0.0509,0.0516,0.0531,0.0535,0.0576,0.065,0.0675,0.0713,0.0757,0.075,0.0799,0.0807,0.0825,0.0844,0.0842,0.0884,0.0888,0.089,0.0878,0.0877,0.0876,0.0868,0.0869,0,0,0,0,0,0.0503,0.048,0.0525,0.0526,0.0538,0.0605,0.0641,0.0669,0.0709,0.0729,0.0763,0.0796,0.0835,0.085,0.0876,0.0903,0.0919,0.0912,0.0911,0.091,0.0909,0.0954,0.0958,0.092,0.092,0.092,0,0,0.0504,0.0505,0.0497,0.0522,0.0556,0.0574,0.0623,0.0649,0.0677,0.0724,0.0755,0.0788,0.0839,0.0869,0.0879,0.0884,0.0924,0.091,0.0909,0.0908,0.0954,0.0958,0.0962,0.092,0.092,0.092,0,0,0.0466,0.0485,0.0445,0.0473,0.0504,0.0553,0.055,0.0604,0.064,0.0669,0.0719,0.076,0.0796,0.0858,0.0891,0.0899,0.0913,0.0893,0.0891,0.0936,0.0939,0.0943,0.0946,0.095,0.0898,0.0898,0.0898,0,0.0472,0.0425,0.0453,0.0433,0.0458,0.053,0.052,0.058,0.0636,0.0658,0.0658,0.0757,0.08,0.0882,0.0887,0.0901,0.0904,0.0896,0.0936,0.094,0.0944,0.0946,0.095,0.0897,0.0898,0.0898,0.0898,0,0.0398,0.0384,0.0367,0.0357,0.0395,0.0397,0.047,0.0501,0.0542,0.0598,0.0657,0.0736,0.0789,0.0823,0.086,0.0921,0.0904,0.0926,0.0941,0.0947,0.0948,0.0953,0.0897,0.0897,0.0897,0.0897,0,0,0.0353,0.0315,0.0313,0.0293,0.0351,0.0363,0.0413,0.0473,0.0474,0.057,0.0585,0.0716,0.0755,0.0796,0.0866,0.0926,0.0962,0.093,0.0933,0.0935,0.1018,0.098,0.0982,0.0984,0.0985,0.0987,0.0999,0,0.029,0.0207,0.0232,0.0208,0.0183,0.0271,0.03,0.0371,0.0422,0.0452,0.0599,0.0631,0.0752,0.0753,0.085,0.0935,0.0976,0.0953,0.1009,0.101,0.098,0.0988,0.0929,0.0934,0.1004,0.1005,0.1006,0,0.0212,0.0167,0.0094,0.0094,0.0092,0.0102,0.014,0.0183,0.0278,0.031,0.0417,0.0492,0.0649,0.0697,0.0906,0.0879,0.0935,0.1003,0.1005,0.0979,0.0983,0.0944,0.0941,0.1015,0.1014,0.1013,0.1013,0,0.013,0.0088,0.0015,0.0017,0.0026,0.002,0.0055,0.0124,0.0142,0.0219,0.0214,0.0405,0.0485,0.0633,0.0831,0.0839,0.1007,0.1032,0.1053,0.1049,0.1016,0.1007,0.1117,0.1117,0.1117,0.1117,0.1117,0,0.0055,0.0009,-0.0044,-0.0079,-0.0141,-0.0086,-0.0125,-0.0072,-0.0028,-0.0008,0.014,0.0196,0.0468,0.0613,0.0771,0.095,0.0975,0.1047,0.1058,0.1006,0.0997,0.1086,0.1082,0.1117,0.1117,0.1117,0.1117,0,-0.0019,-0.006,-0.014,-0.0179,-0.0192,-0.0228,-0.0222,-0.0244,-0.0189,-0.0167,-0.0145,0.0051,0.027,0.0511,0.0743,0.0863,0.1021,0.1053,0.0958,0.0958,0.1033,0.1028,0.1063,0.1062,0.1061,0.106,0.106,0,-0.0066,-0.0134,-0.0225,-0.0278,-0.03,-0.0345,-0.0371,-0.0323,-0.0333,-0.023,-0.022,-0.0035,0.0156,0.0489,0.071,0.0942,0.1002,0.0957,0.0977,0.1024,0.1031,0.1028,0.1025,0.0919,0.0917,0.0916,0.0915,0,-0.0138,-0.0191,-0.026,-0.0382,-0.044,-0.0489,-0.0515,-0.0544,-0.0469,-0.0432,-0.0311,-0.0162,0.0164,0.0443,0.0708,0.0833,0.0927,0.0931,0.1024,0.0938,0.0889,0.0896,0.0897,0.0902,0.0904,0.0904,0.0905,0.0906,-0.0186,-0.0256,-0.0368,-0.0472,-0.0546,-0.0607,-0.0638,-0.0626,-0.0612,-0.049,-0.0355,-0.0096,0.0125,0.0539,0.0702,0.0831,0.0862,0.0888,0.0892,0.0898,0.0876,0.0828,0.0823,0.0824,0.0824,0.0825,0.0825,0,-0.0227,-0.0321,-0.0435,-0.0555,-0.0636,-0.0671,-0.0717,-0.0693,-0.0644,-0.047,-0.0298,-0.0038,0.0244,0.0491,0.0677,0.0778,0.0786,0.0788,0.0791,0.0801,0.0811,0.0785,0.0708,0.0708,0.0708,0.0708,0,0,-0.0255,-0.0369,-0.0436,-0.0596,-0.0691,-0.0771,-0.0798,-0.073,-0.0605,-0.0389,-0.0205,0.0046,0.0297,0.0398,0.0536,0.0641,0.069,0.0634,0.0711,0.0706,0.0715,0.0843,0.0811,0,0,0,0,0]}],[{"header":{"parameterUnit":"m.s-1","parameterCategory":2,"la1":30.2991,"la2":30.254,"lo1":-89.0895,"lo2":-89.0444,"dy":0.0017,"dx":0.0017,"nx":28,"ny":28,"refTime":"2023-11-05T09:00:00:Z","depth":"4","parameterNumber":2,"parameterNumberName":"U-component_of_CURRENTS"},"data":[0,0,0,0,0,0,0,0,0,0,0,0,0,0,0,0,0,0,0,0,0,0,0,0,0,0,0,0,0,0,0,0,0,0,0,0,0,0,0,0,0,0,0,0,0,0,0,0,0,0,0,0,0,0,0,0,0,0,-0.1089,-0.109,0,-0.114,-0.114,-0.114,-0.1163,-0.1163,-0.1164,-0.1164,-0.1223,-0.1224,-0.1225,0,0,0,0,0,0,0,0,0,0,0,0,0,-0.0999,-0.1,-0.1088,-0.109,-0.1091,-0.114,-0.114,-0.114,-0.1163,-0.1163,-0.1164,-0.1164,-0.1223,-0.1224,-0.1225,0,0,0,0,0,0,0,0,0,0,0,0,0,-0.1038,-0.1001,-0.1088,-0.1112,-0.1115,-0.114,-0.114,-0.114,-0.1163,-0.1163,-0.1164,-0.1165,-0.1222,-0.1224,-0.1225,-0.1224,0,0,-0.1231,-0.1232,0,0,0,0,0,0,0,0,-0.1036,-0.104,-0.1107,-0.111,-0.1114,-0.1151,-0.1131,-0.1171,-0.1163,-0.1139,-0.1164,-0.1165,-0.1202,-0.1206,-0.1206,-0.1226,-0.1229,-0.1231,-0.1232,-0.1233,-0.1233,0,0,0,0,0,0,0,-0.1033,-0.1038,-0.1103,-0.1109,-0.1113,-0.1117,-0.1122,-0.1138,-0.1162,-0.1141,-0.1144,-0.1158,-0.1204,-0.1204,-0.1208,-0.123,-0.1231,-0.1233,-0.1234,-0.1234,-0.1345,-0.1347,0,0,0,0,0,0,-0.1038,-0.1036,-0.1102,-0.1105,-0.1082,-0.1118,-0.1124,-0.1134,-0.1162,-0.1169,-0.1158,-0.1159,-0.1201,-0.1206,-0.121,-0.1279,-0.1233,-0.1234,-0.1235,-0.1343,-0.1345,-0.1347,0,0,0,0,0,0,-0.1035,-0.1043,-0.11,-0.1076,-0.1085,-0.112,-0.113,-0.1134,-0.1157,-0.1176,-0.1181,-0.1179,-0.1202,-0.1208,-0.1263,-0.1279,-0.1235,-0.1237,-0.1341,-0.1344,-0.1346,-0.1372,0,0,0,0,0,0,-0.1032,-0.1041,-0.1049,-0.1077,-0.1086,-0.1137,-0.113,-0.1135,-0.1166,-0.1169,-0.1195,-0.12,-0.1203,-0.1261,-0.1265,-0.128,-0.1238,-0.1338,-0.1342,-0.1346,-0.1369,-0.1375,-0.1381,0,0,0,0,0,-0.1029,-0.1043,-0.1049,-0.1058,-0.1096,-0.1138,-0.1144,-0.1166,-0.1167,-0.1186,-0.1215,-0.12,-0.1286,-0.1264,-0.1268,-0.1285,-0.1337,-0.1341,-0.1345,-0.1366,-0.1374,-0.1381,0,0,0,0,0,0,-0.1002,-0.1048,-0.1055,-0.108,-0.1117,-0.1145,-0.1163,-0.1177,-0.1211,-0.1219,-0.1228,-0.1236,-0.1285,-0.1291,-0.1267,-0.133,-0.1307,-0.1313,-0.1322,-0.1329,-0.1335,-0.1325,-0.124,0,0,0,0,0,-0.1001,-0.1026,-0.1068,-0.1088,-0.1108,-0.1136,-0.1156,-0.1177,-0.1211,-0.1226,-0.1253,-0.128,-0.1301,-0.1322,-0.1344,-0.1383,-0.1373,-0.1398,-0.1404,-0.1409,-0.1406,-0.1417,-0.1422,-0.1361,-0.1361,-0.1361,0,0,-0.0992,-0.1024,-0.1035,-0.1085,-0.1109,-0.1137,-0.1149,-0.1191,-0.1216,-0.1228,-0.1277,-0.1302,-0.1318,-0.1361,-0.1383,-0.1371,-0.1423,-0.1414,-0.1418,-0.1412,-0.1422,-0.1427,-0.1432,-0.1364,-0.1364,-0.1363,0,0,-0.0994,-0.1019,-0.1044,-0.1079,-0.1134,-0.1152,-0.117,-0.1221,-0.1248,-0.1307,-0.1312,-0.1354,-0.1404,-0.1411,-0.1419,-0.1474,-0.1453,-0.1488,-0.151,-0.1521,-0.1525,-0.1529,-0.1522,-0.1524,-0.1493,-0.1493,-0.1493,0,-0.0985,-0.1017,-0.1057,-0.1093,-0.1122,-0.1159,-0.1189,-0.1217,-0.1284,-0.132,-0.1334,-0.1408,-0.142,-0.1449,-0.1473,-0.1483,-0.1486,-0.1475,-0.1526,-0.1529,-0.1532,-0.1524,-0.1527,-0.1494,-0.1494,-0.1494,-0.1494,0,-0.0998,-0.1034,-0.1054,-0.1105,-0.1141,-0.1178,-0.1226,-0.1279,-0.1321,-0.1353,-0.1423,-0.1449,-0.1494,-0.1502,-0.1505,-0.1537,-0.153,-0.1527,-0.1498,-0.1539,-0.1529,-0.1531,-0.1497,-0.1496,-0.1496,-0.1495,0,0,-0.0947,-0.1046,-0.105,-0.1088,-0.1155,-0.1187,-0.1244,-0.1309,-0.1359,-0.1418,-0.1475,-0.1512,-0.1537,-0.1548,-0.1553,-0.1563,-0.1585,-0.1562,-0.1562,-0.1539,-0.1604,-0.1516,-0.1509,-0.1596,-0.1597,-0.1598,-0.1586,0,-0.0945,-0.1008,-0.106,-0.1115,-0.115,-0.1222,-0.1277,-0.1345,-0.1406,-0.1475,-0.1503,-0.1551,-0.1546,-0.1576,-0.1587,-0.1588,-0.1594,-0.1588,-0.1582,-0.1581,-0.1484,-0.151,-0.16,-0.1587,-0.1588,-0.1588,-0.1588,0,-0.0927,-0.098,-0.1035,-0.1146,-0.117,-0.1208,-0.1313,-0.1373,-0.147,-0.1527,-0.1578,-0.1604,-0.1626,-0.1618,-0.1627,-0.1629,-0.1622,-0.1614,-0.1614,-0.1521,-0.1496,-0.1541,-0.1592,-0.1592,-0.1591,-0.1591,-0.1591,0,-0.0852,-0.0959,-0.1003,-0.1036,-0.1161,-0.1214,-0.1277,-0.1386,-0.1451,-0.1546,-0.1595,-0.1636,-0.1653,-0.1657,-0.1645,-0.165,-0.1643,-0.1644,-0.1552,-0.1545,-0.1615,-0.1611,-0.1648,-0.1648,-0.1648,-0.1648,-0.1648,0,-0.0813,-0.0855,-0.0979,-0.1,-0.1086,-0.1181,-0.127,-0.1361,-0.1466,-0.1519,-0.1602,-0.1623,-0.1667,-0.1671,-0.1659,-0.1601,-0.1653,-0.1551,-0.1537,-0.1627,-0.1625,-0.1615,-0.1612,-0.1647,-0.1647,-0.1648,-0.1648,0,-0.0721,-0.0802,-0.0866,-0.0997,-0.1052,-0.1104,-0.1255,-0.1316,-0.1431,-0.1495,-0.1521,-0.1615,-0.1614,-0.1636,-0.1636,-0.1599,-0.1565,-0.1532,-0.1617,-0.1609,-0.1458,-0.1457,-0.1432,-0.1429,-0.1426,-0.1424,-0.1422,0,-0.0683,-0.0704,-0.0837,-0.0882,-0.0943,-0.1046,-0.1125,-0.1277,-0.1324,-0.146,-0.1463,-0.152,-0.1556,-0.1472,-0.1523,-0.1496,-0.1482,-0.147,-0.1472,-0.1447,-0.1437,-0.144,-0.1442,-0.1418,-0.1417,-0.1416,-0.1415,0,-0.0608,-0.0651,-0.0699,-0.0774,-0.0854,-0.0965,-0.1067,-0.1099,-0.125,-0.1355,-0.1358,-0.1378,-0.1379,-0.1387,-0.1381,-0.1363,-0.1484,-0.1441,-0.1447,-0.1449,-0.143,-0.1423,-0.1428,-0.1406,-0.1407,-0.1408,-0.1409,0,-0.0549,-0.0551,-0.0599,-0.0664,-0.0756,-0.0839,-0.0931,-0.0988,-0.1068,-0.121,-0.1193,-0.1259,-0.1329,-0.1316,-0.1304,-0.1289,-0.1281,-0.1257,-0.1273,-0.1284,-0.1248,-0.1202,-0.109,0,0,0,0,0,-0.0496,-0.0476,-0.0498,-0.0567,-0.0641,-0.0711,-0.087,-0.0961,-0.1093,-0.1051,-0.1124,-0.1114,-0.113,-0.1176,-0.113,-0.1266,-0.1298,-0.1214,-0.128,-0.1354,-0.1365,-0.134,0,0,0,0,0,0,-0.0461,-0.046,-0.0448,-0.0454,-0.0482,-0.0585,-0.0688,-0.0805,-0.0798,-0.092,-0.0922,-0.1023,-0.1043,-0.1093,-0.1082,-0.1102,-0.1124,-0.1266,-0.1264,-0.1348,-0.1357,-0.1366,-0.1345,0,0,0,0,0]},{"header":{"parameterUnit":"m.s-1","parameterCategory":2,"la1":30.2991,"la2":30.254,"lo1":-89.0895,"lo2":-89.0444,"dy":0.0017,"dx":0.0017,"nx":28,"ny":28,"refTime":"2023-11-05T09:00:00:Z","depth":"4","parameterNumber":3,"parameterNumberName":"V-component_of_CURRENTS"},"data":[0,0,0,0,0,0,0,0,0,0,0,0,0,0,0,0,0,0,0,0,0,0,0,0,0,0,0,0,0,0,0,0,0,0,0,0,0,0,0,0,0,0,0,0,0,0,0,0,0,0,0,0,0,0,0,0,0,0,-0.0098,-0.0098,0,-0.009,-0.009,-0.009,-0.0064,-0.0063,-0.0062,-0.0062,-0.0025,-0.0025,-0.0025,0,0,0,0,0,0,0,0,0,0,0,0,0,-0.0056,-0.0057,-0.0098,-0.0098,-0.0098,-0.009,-0.009,-0.009,-0.0064,-0.0063,-0.0062,-0.0061,-0.0025,-0.0025,-0.0025,0,0,0,0,0,0,0,0,0,0,0,0,0,-0.0064,-0.0057,-0.0098,-0.0084,-0.0082,-0.009,-0.009,-0.009,-0.0064,-0.0063,-0.0062,-0.0061,-0.0026,-0.0025,-0.0024,-0.0039,0,0,-0.0023,-0.0022,0,0,0,0,0,0,0,0,-0.0064,-0.0066,-0.0086,-0.0085,-0.0083,-0.0077,-0.0062,-0.0071,-0.0064,-0.0071,-0.0062,-0.0061,-0.004,-0.0039,-0.004,-0.0038,-0.0036,-0.0023,-0.0022,-0.0022,-0.0022,0,0,0,0,0,0,0,-0.0063,-0.0066,-0.0095,-0.0086,-0.0084,-0.0065,-0.0066,-0.0063,-0.0061,-0.007,-0.0068,-0.0067,-0.0039,-0.0041,-0.0039,-0.0036,-0.0023,-0.0022,-0.0022,-0.0022,-0.0018,-0.0018,0,0,0,0,0,0,-0.0067,-0.0066,-0.0096,-0.0095,-0.007,-0.0067,-0.0068,-0.008,-0.0061,-0.0058,-0.0068,-0.0066,-0.0042,-0.0039,-0.0037,-0.0039,-0.0022,-0.0021,-0.0021,-0.0018,-0.0018,-0.0019,0,0,0,0,0,0,-0.0066,-0.007,-0.0096,-0.0079,-0.0081,-0.0069,-0.0083,-0.008,-0.0078,-0.006,-0.0055,-0.0068,-0.0041,-0.0038,-0.003,-0.0037,-0.0021,-0.0021,-0.0018,-0.0018,-0.0018,-0.0051,0,0,0,0,0,0,-0.0065,-0.007,-0.0082,-0.008,-0.0082,-0.0106,-0.0084,-0.0081,-0.0079,-0.0076,-0.0058,-0.0054,-0.004,-0.0031,-0.0029,-0.0036,-0.002,-0.0017,-0.0018,-0.0018,-0.0049,-0.0052,-0.0055,0,0,0,0,0,-0.0064,-0.0089,-0.0083,-0.0087,-0.0099,-0.0107,-0.0107,-0.0094,-0.008,-0.0087,-0.0067,-0.0055,-0.0033,-0.0031,-0.0029,-0.0036,-0.0017,-0.0018,-0.0018,-0.0048,-0.0052,-0.0055,0,0,0,0,0,0,-0.0077,-0.0089,-0.0082,-0.0109,-0.0108,-0.0102,-0.0109,-0.0098,-0.0089,-0.0081,-0.006,-0.0055,-0.0052,-0.004,-0.0038,-0.0036,-0.0023,-0.0023,-0.0046,-0.0049,-0.0052,-0.0048,-0.002,0,0,0,0,0,-0.0086,-0.0107,-0.0107,-0.0127,-0.0129,-0.0118,-0.0119,-0.0109,-0.01,-0.0095,-0.0082,-0.0065,-0.0056,-0.0048,-0.0041,-0.0041,0.0007,-0.0043,-0.0046,-0.0048,-0.0044,0.0029,0.0033,-0.002,-0.002,-0.002,0,0,-0.0095,-0.0104,-0.0115,-0.013,-0.0128,-0.0142,-0.0117,-0.0121,-0.013,-0.0093,-0.01,-0.0078,-0.0058,-0.0057,-0.0054,-0.0045,-0.0008,-0.0049,-0.0051,-0.0045,0.0029,0.0034,0.0039,-0.0021,-0.0021,-0.0021,0,0,-0.0126,-0.0133,-0.016,-0.0164,-0.0164,-0.0159,-0.0161,-0.0156,-0.015,-0.0151,-0.0125,-0.0101,-0.0098,-0.0076,-0.0066,-0.0078,-0.0027,-0.0081,-0.0089,-0.0019,-0.0013,-0.0008,0.0063,0.0075,-0.0079,-0.0079,-0.0079,0,-0.013,-0.0169,-0.0167,-0.019,-0.0191,-0.0169,-0.0187,-0.0188,-0.0178,-0.0162,-0.0158,-0.0115,-0.0105,-0.0079,-0.0087,-0.0084,-0.0032,-0.0079,-0.0021,-0.0014,-0.0008,0.0063,0.0077,-0.0081,-0.0081,-0.008,-0.008,0,-0.0181,-0.0207,-0.0221,-0.0243,-0.0246,-0.0257,-0.0251,-0.0249,-0.0233,-0.0212,-0.0182,-0.0156,-0.0119,-0.012,-0.0112,-0.0068,-0.0041,-0.0034,-0.001,-0.0004,0.007,0.0085,-0.0083,-0.0082,-0.0082,-0.0082,0,0,-0.0188,-0.0246,-0.0249,-0.0266,-0.027,-0.0278,-0.0288,-0.0276,-0.0263,-0.0242,-0.021,-0.0193,-0.0148,-0.0134,-0.0109,-0.0058,0.0021,-0.0032,-0.0028,0.0042,0.0187,0.0137,0.0149,0.0045,0.0047,0.0049,0.0223,0,-0.0218,-0.0281,-0.0294,-0.0332,-0.0355,-0.0336,-0.0347,-0.0327,-0.0296,-0.0263,-0.0207,-0.0175,-0.0162,-0.0137,-0.0083,-0.001,0.0058,-0.0027,0.0168,0.0173,0.0131,0.0163,0.0056,0.0235,0.0238,0.0241,0.0243,0,-0.0254,-0.0291,-0.0346,-0.0375,-0.038,-0.0397,-0.0377,-0.038,-0.0322,-0.0293,-0.0227,-0.0176,-0.0104,-0.0095,0.0061,0.001,0.0098,0.0159,0.0168,0.0143,0.015,0.0227,0.0271,0.0268,0.0266,0.0264,0.0263,0,-0.0261,-0.0318,-0.0364,-0.0375,-0.0408,-0.0416,-0.0419,-0.038,-0.0371,-0.0296,-0.0262,-0.016,-0.0106,0.0014,0.0132,0.011,0.0314,0.0305,0.0354,0.0353,0.0361,0.0354,0.0438,0.0438,0.0438,0.0437,0.0437,0,-0.0283,-0.0314,-0.0375,-0.0401,-0.0434,-0.0437,-0.0442,-0.0427,-0.0385,-0.0355,-0.0272,-0.0218,-0.0075,0.0051,0.0159,0.0302,0.035,0.0365,0.0396,0.0343,0.0331,0.0373,0.0363,0.0444,0.0442,0.0441,0.044,0,-0.0279,-0.0328,-0.038,-0.043,-0.0446,-0.0463,-0.048,-0.0472,-0.0433,-0.0387,-0.0363,-0.0239,-0.0082,0.0069,0.0273,0.0328,0.0472,0.0519,0.0464,0.0487,0.0461,0.0447,0.0589,0.0589,0.0588,0.0588,0.0588,0,-0.0286,-0.0318,-0.0398,-0.0433,-0.046,-0.0489,-0.0505,-0.0495,-0.0484,-0.0398,-0.0373,-0.0219,-0.0123,0.0148,0.0284,0.0504,0.0516,0.059,0.0505,0.0462,0.0478,0.0465,0.0452,0.0588,0.0587,0.0587,0.0587,0,-0.028,-0.0313,-0.0358,-0.0435,-0.0476,-0.0514,-0.0537,-0.0538,-0.0507,-0.0476,-0.0355,-0.0219,-0.0042,0.0143,0.0316,0.0463,0.0531,0.0587,0.0588,0.0509,0.0462,0.0475,0.0463,0.0586,0.0587,0.0587,0.0587,0,-0.0266,-0.029,-0.0358,-0.0416,-0.0478,-0.0517,-0.0537,-0.0518,-0.0504,-0.0423,-0.0379,-0.0187,-0.0076,0.0125,0.0284,0.0418,0.0428,0.0442,0.0451,0.0453,0.0332,0.0248,0.0347,0,0,0,0,0,-0.0249,-0.0272,-0.033,-0.0405,-0.047,-0.05,-0.0543,-0.0554,-0.0536,-0.0454,-0.0419,-0.0251,-0.0022,0.0086,0.0215,0.0253,0.0435,0.04,0.0452,0.0581,0.0583,0.0455,0,0,0,0,0,0,-0.0241,-0.0285,-0.0313,-0.0377,-0.0423,-0.0482,-0.051,-0.0507,-0.0466,-0.0428,-0.0294,-0.0238,-0.0003,-0.0071,0.0224,0.0261,0.03,0.0511,0.0513,0.0581,0.0582,0.0583,0.0452,0,0,0,0,0]}]]